Theta_e
314 314 316 320 326 325 327 327 324 343 347 346 345 350 350 350 351 355 354 355 352 350 346 328 333 332 331 334 339 339 339 338 334 333 333 334 333 330 328 327 334 346 345 348 347 343 338 339 337
313 320 318 321 325 326 326 327 327 346 346 346 346 346 348 349 344 355 355 355 351 348 346 343 330 329 327 328 331 336 336 333 332 332 334 334 330 328 327 330 336 343 346 346 346 346 341 339 338
317 317 324 324 324 326 326 327 327 345 344 347 348 345 346 347 347 354 352 356 353 350 344 345 329 328 326 326 326 328 329 330 331 333 333 330 328 327 329 334 340 343 346 347 348 345 342 341 341
318 319 318 323 324 324 324 323 327 346 346 345 345 348 344 347 350 350 352 355 352 348 343 331 327 327 326 327 328 330 331 332 332 332 330 328 326 329 332 336 339 347 348 347 346 345 344 341 340
316 318 321 321 321 321 322 321 320 336 348 348 347 349 350 344 349 352 354 354 351 348 343 343 327 328 327 328 328 329 329 331 332 330 328 328 327 328 333 337 340 342 347 347 345 343 341 340 340
322 319 319 319 320 321 321 319 318 327 344 349 348 347 344 342 351 354 355 351 350 348 346 344 327 328 328 328 328 329 329 329 329 326 327 328 328 327 330 335 336 338 342 345 346 343 340 339 339
322 321 321 319 321 321 319 318 320 325 338 349 344 347 349 344 352 353 354 354 350 349 347 344 339 328 329 328 328 328 328 328 328 327 326 327 328 328 327 330 335 336 337 342 345 344 342 340 340
319 320 320 320 321 320 318 319 342 336 330 343 343 347 345 344 352 351 352 354 350 351 348 345 345 340 337 332 329 328 329 329 328 328 327 327 327 327 328 328 329 334 335 337 341 344 344 343 342
314 321 320 321 319 319 318 320 320 333 347 343 344 351 348 348 351 351 350 352 350 350 350 348 343 343 341 341 334 329 330 330 330 330 329 328 338 337 334 333 328 328 334 336 339 343 345 344 344
320 320 319 318 317 320 320 318 319 331 346 348 352 350 350 350 351 352 349 348 348 349 349 349 347 346 344 343 342 341 340 340 341 338 337 340 341 341 340 336 329 329 328 334 338 344 345 345 348
317 320 319 319 319 318 319 320 318 334 349 348 348 354 350 351 352 352 350 346 345 347 348 348 350 349 346 345 345 343 342 344 343 341 339 340 340 339 339 341 339 340 334 336 338 344 346 349 348
318 318 318 318 317 318 319 319 320 335 346 343 344 350 349 352 353 352 351 348 345 346 346 347 348 349 349 347 346 345 343 343 343 343 340 339 340 340 341 340 340 341 339 338 337 339 345 346 347
318 318 316 317 317 317 316 319 319 320 321 320 325 350 350 350 351 350 350 348 346 345 345 345 347 347 346 343 348 347 346 344 343 340 338 342 342 342 341 341 339 339 340 338 337 336 337 342 345
318 318 319 319 321 317 317 318 316 321 320 324 341 346 350 349 345 345 350 349 347 346 346 345 346 346 343 345 349 348 344 345 339 339 341 334 342 340 341 341 340 339 340 340 340 340 338 336 338
319 321 320 321 321 321 318 319 320 321 319 323 332 342 351 350 343 339 346 351 349 348 347 346 346 345 338 339 342 342 340 345 342 339 335 335 335 337 340 341 340 340 343 342 343 343 340 339 336
320 319 321 321 319 319 319 322 322 320 319 321 328 334 341 350 348 344 341 343 348 349 347 346 344 344 342 343 346 345 344 341 341 341 338 337 337 338 339 341 339 339 339 341 344 344 343 341 340
319 320 321 321 319 321 320 323 322 320 320 321 322 327 332 337 345 347 346 344 344 343 348 346 345 344 343 341 344 344 344 343 344 341 339 337 338 338 339 341 340 335 341 344 343 344 343 343 342
320 321 322 323 321 321 322 322 321 320 318 319 319 319 320 320 322 320 324 330 334 337 344 347 345 344 343 341 339 342 342 338 342 337 336 336 336 336 337 341 341 339 343 345 345 345 343 343 343
320 322 323 323 322 323 323 322 321 321 322 322 323 324 324 323 323 323 322 319 319 323 338 344 346 345 343 343 341 341 341 343 344 339 338 339 337 339 340 342 341 337 341 344 341 342 345 344 343
321 322 324 323 320 323 322 322 321 324 325 325 325 325 324 325 325 325 325 325 321 324 326 336 342 345 343 343 341 341 341 345 345 345 344 341 342 342 342 340 339 338 341 344 344 344 341 342 342
322 323 324 323 320 320 322 324 322 325 324 324 324 324 323 324 325 327 327 327 325 323 323 336 343 344 343 343 343 343 345 344 345 345 346 344 346 344 342 341 341 340 337 339 343 344 339 342 339
323 322 322 321 323 325 321 324 323 326 325 325 324 324 323 323 324 326 327 328 327 325 324 321 328 347 344 343 343 343 343 345 346 348 347 342 342 343 342 342 340 337 337 342 343 344 342 337 337
323 320 322 322 324 323 322 324 324 324 325 325 322 321 321 322 323 325 326 327 328 328 328 322 321 335 346 344 343 345 346 347 348 348 345 337 337 342 343 340 337 334 336 344 344 340 336 339 339
320 321 321 320 322 326 325 324 324 326 324 322 319 318 319 319 321 323 324 325 326 328 330 327 323 329 341 346 344 345 346 348 348 347 345 339 340 341 341 338 336 335 336 343 342 340 341 341 340
321 325 326 327 326 327 323 323 328 322 321 319 318 318 319 320 321 322 323 324 325 326 329 330 329 331 338 344 345 345 347 349 348 347 344 338 340 340 337 337 334 337 337 343 343 341 343 342 341
324 326 325 328 327 326 322 327 327 319 318 317 317 318 317 318 320 322 322 322 323 324 325 329 332 335 341 344 345 345 345 346 347 347 343 338 338 338 335 333 330 333 338 343 342 341 341 341 341
322 325 321 325 323 326 325 324 320 317 316 316 317 317 317 317 318 320 322 322 322 323 324 324 326 332 335 341 343 343 341 341 344 344 343 339 334 338 336 334 330 328 334 338 341 341 341 340 340
320 318 324 323 327 328 325 327 327 319 317 317 316 316 316 316 316 318 319 322 322 323 323 324 324 324 328 334 339 343 343 340 337 337 339 340 337 332 338 336 332 329 330 337 341 341 342 342 340
318 319 319 319 322 326 327 325 320 317 317 317 315 315 314 315 316 316 317 319 321 322 323 324 323 323 323 325 330 335 337 340 341 338 337 338 339 339 338 338 336 334 333 337 338 341 342 342 340
312 315 317 323 325 322 324 324 315 316 316 316 314 314 313 314 315 316 315 316 317 319 321 322 322 323 321 321 323 325 328 333 335 339 340 337 337 338 338 339 339 339 338 339 341 341 341 341 340
Wind_Speed
1 3 5 2 3 2 2 3 3 2 4 1 6 3 4 2 2 1 2 16 21 25 22 28 29 28 28 27 27 27 27 24 22 21 20 19 17 15 15 16 17 16 15 14 14 14 14 14 14
3 7 2 1 2 3 2 2 6 2 2 3 3 1 2 1 1 5 9 14 23 27 23 23 29 28 28 27 27 27 25 24 22 21 19 16 16 16 16 17 16 16 14 13 12 12 12 12 11
5 4 2 2 1 3 2 3 4 2 4 7 7 2 1 0 2 10 7 14 22 23 24 24 29 29 27 27 27 25 23 22 20 19 18 17 16 16 16 15 15 14 14 12 12 9 9 9 9
4 3 3 3 3 3 3 3 4 2 4 6 3 3 1 1 5 4 12 19 24 22 21 27 29 28 28 27 26 24 22 21 21 20 17 16 15 14 14 14 13 12 12 13 11 11 8 8 7
3 1 2 2 3 3 6 5 4 7 3 6 4 1 1 4 1 6 16 18 23 22 20 22 27 27 26 25 25 23 22 20 19 18 18 16 15 15 14 13 12 12 13 12 12 11 10 8 6
2 0 3 5 3 3 5 5 6 9 5 4 4 2 2 4 6 11 17 18 21 24 21 20 25 25 26 25 24 22 21 20 19 18 17 15 14 14 14 13 13 11 11 12 12 11 9 7 5
2 2 3 4 3 2 4 9 3 6 9 5 1 2 3 5 11 13 14 16 19 21 21 20 21 24 24 24 23 22 21 19 19 17 17 16 14 13 12 12 11 10 10 10 11 11 10 8 5
3 2 5 3 4 2 4 6 4 4 7 1 3 3 1 7 16 17 15 17 18 20 20 20 19 20 21 21 22 22 20 19 17 17 15 14 13 13 12 11 11 10 9 10 11 11 11 9 7
2 2 4 4 4 1 4 8 1 2 2 3 5 2 2 16 18 18 17 16 17 17 19 20 21 20 19 18 21 21 20 18 17 16 15 15 12 12 11 11 10 10 9 7 8 10 10 10 8
1 3 5 2 2 6 11 5 10 2 4 5 3 4 10 18 19 19 19 20 19 20 20 20 20 19 19 17 17 19 18 16 17 16 15 13 11 11 10 9 9 9 8 7 7 8 9 9 7
2 2 3 2 7 7 8 8 1 1 4 6 6 7 13 18 18 18 18 21 21 19 19 19 19 19 19 18 18 17 17 16 17 18 16 14 11 10 10 8 8 7 8 7 7 7 8 8 8
3 4 3 3 3 3 5 8 5 4 2 4 3 8 15 16 16 19 19 20 22 22 22 20 20 21 21 19 20 20 18 17 16 16 17 16 14 13 11 9 9 8 8 8 7 7 7 9 9
4 2 4 6 8 7 4 9 4 6 5 5 5 12 14 14 15 14 15 16 19 22 23 22 21 23 23 24 19 19 19 19 17 18 19 15 14 13 12 10 9 9 8 8 8 7 7 7 8
5 3 5 5 6 4 4 1 5 7 5 5 2 9 16 16 16 14 16 18 20 19 21 21 22 23 23 23 22 20 21 20 22 20 19 21 17 15 12 11 10 9 9 8 7 6 6 8 8
1 4 5 6 3 3 7 4 8 5 3 8 8 6 8 14 16 20 19 19 20 22 19 23 23 23 26 26 25 24 23 20 22 22 22 22 20 19 16 12 11 10 9 9 8 9 8 8 10
2 2 5 2 3 1 5 7 8 3 5 11 11 9 9 12 19 19 18 20 19 19 27 26 24 25 27 26 23 21 20 22 22 21 20 22 20 20 18 15 14 12 11 10 10 11 9 9 10
2 3 3 3 1 1 4 5 4 4 7 12 12 11 8 9 10 19 21 21 22 26 23 28 30 28 27 26 22 20 18 19 17 19 19 20 20 19 18 15 13 14 11 10 11 11 10 10 10
4 3 2 4 3 2 3 10 5 8 4 5 5 5 8 10 10 15 16 14 15 13 18 20 26 28 27 24 24 19 18 20 19 21 20 21 20 19 18 14 14 14 10 9 10 11 10 9 8
5 3 6 8 6 4 5 5 8 10 13 12 13 12 12 12 12 16 16 13 17 21 19 18 20 27 27 25 24 23 25 21 20 24 23 21 20 19 18 15 15 16 12 10 10 10 9 7 7
6 6 8 8 5 8 4 2 9 12 13 13 13 14 12 13 15 18 19 15 10 11 20 22 24 26 33 29 29 21 22 20 18 17 18 21 20 20 18 18 16 17 13 13 12 10 7 5 9
7 7 3 4 4 2 5 4 7 9 13 14 15 13 14 14 14 16 19 19 17 13 14 20 26 28 29 28 24 19 15 17 17 18 18 23 21 20 19 18 18 18 15 14 15 13 14 8 7
8 9 5 3 6 6 3 5 5 8 10 13 13 14 15 17 17 17 22 24 21 19 17 20 25 26 32 31 27 30 29 24 26 21 18 19 21 20 20 17 17 18 15 14 14 14 11 10 10
6 7 7 5 7 4 6 5 7 5 6 9 11 12 13 14 15 18 21 25 26 23 18 15 18 26 29 33 36 31 28 27 19 18 21 22 21 21 19 17 17 19 16 14 13 15 15 12 11
4 4 3 2 4 7 10 10 8 6 5 7 8 11 12 13 13 15 20 22 27 28 24 16 9 16 24 27 31 32 31 27 24 21 21 19 18 19 21 18 18 20 19 17 16 17 14 12 9
4 5 7 8 7 9 6 8 5 8 7 7 7 9 11 12 13 13 16 23 26 28 28 22 12 9 15 22 26 28 27 24 26 25 24 22 19 20 24 22 20 20 21 18 18 17 14 13 10
9 10 8 12 11 10 4 7 7 8 8 6 6 6 9 12 13 14 16 18 20 22 23 23 15 7 6 11 19 21 22 25 25 22 23 26 25 26 27 26 22 21 21 20 21 16 14 13 12
5 7 2 3 2 5 5 4 4 7 6 5 6 8 10 11 12 13 16 17 18 19 20 21 20 14 7 6 11 14 15 19 20 18 18 21 30 23 28 29 27 25 24 24 23 19 17 15 13
1 3 3 2 6 10 5 6 4 15 7 3 4 7 8 10 12 13 15 17 16 17 17 19 20 20 17 10 4 7 11 14 20 17 18 22 26 32 24 29 29 29 27 25 23 20 18 17 15
2 2 3 1 3 7 11 4 6 11 6 3 2 4 7 9 10 10 14 16 17 17 18 18 21 21 21 19 15 9 5 7 12 18 24 24 23 24 26 26 30 30 30 29 28 25 21 20 17
7 4 3 5 5 1 3 3 7 7 4 1 1 3 6 7 7 8 10 13 15 17 18 18 18 16 17 17 16 16 14 9 5 7 13 17 20 20 23 20 18 23 27 29 30 28 26 25 22
Wind_Direction
168 198 169 168 237 270 40 61 289 170 186 215 162 191 219 344 247 69 264 170 154 152 160 160 157 156 155 154 157 157 155 153 152 149 146 142 138 135 134 134 135 134 132 128 126 120 112 105 99
144 129 124 155 229 187 132 283 17 173 132 151 127 75 201 272 131 105 124 171 165 157 159 160 161 157 155 154 154 155 156 155 154 149 145 142 141 139 138 138 140 141 138 136 136 131 123 114 106
147 169 230 179 171 192 251 228 343 303 197 194 174 243 220 157 109 132 127 150 159 157 157 163 163 158 156 157 155 155 155 154 153 150 148 148 148 145 143 144 144 146 145 145 144 140 131 122 107
158 145 104 227 153 196 263 322 270 217 198 206 167 189 172 80 138 101 152 153 155 159 160 167 167 161 159 159 156 155 156 157 157 156 155 152 150 148 146 145 147 148 153 156 155 154 156 131 114
67 116 137 146 192 266 258 288 270 237 200 164 195 136 219 138 161 142 154 161 160 157 161 168 169 164 162 163 161 160 160 160 160 158 157 157 156 155 154 153 154 157 160 167 172 168 162 149 134
116 189 173 164 197 259 284 288 283 233 205 146 205 245 121 135 146 147 158 158 165 159 164 169 173 169 168 168 165 165 164 164 166 167 165 164 163 163 162 163 162 165 169 171 176 172 173 167 158
133 163 137 153 169 258 343 343 218 247 214 195 44 255 96 172 144 147 154 162 165 167 167 169 170 176 175 174 172 172 172 171 172 172 171 171 172 171 173 170 170 170 172 178 178 183 184 188 184
113 106 144 200 177 86 358 347 322 215 225 81 172 272 114 157 154 147 152 159 165 171 173 171 171 174 176 182 181 179 179 178 180 179 178 178 181 182 181 180 180 179 177 185 189 192 193 198 199
162 140 183 187 199 357 350 351 81 302 208 176 188 280 15 151 150 146 145 153 164 176 178 177 178 178 178 183 186 189 188 188 188 187 190 190 186 192 193 195 190 189 187 190 190 198 199 204 209
164 196 195 203 245 313 322 323 331 285 211 202 200 88 132 152 161 159 164 168 178 183 185 187 185 183 183 184 187 192 192 193 193 195 199 195 197 199 195 203 203 204 198 197 195 193 202 205 208
150 217 192 220 249 281 310 306 342 209 221 238 227 176 162 170 174 173 176 184 186 189 190 193 192 192 190 190 191 194 196 198 203 204 202 206 203 207 208 207 209 210 216 203 205 201 204 216 210
212 241 226 280 233 274 285 302 311 197 286 202 236 181 168 184 182 183 184 186 188 193 198 197 196 197 197 197 200 202 198 201 206 208 212 210 213 213 211 214 214 214 216 216 211 212 217 218 225
208 232 205 257 270 252 272 258 298 263 257 308 155 164 176 193 192 196 199 197 198 204 203 201 199 199 202 204 204 206 206 207 210 213 216 215 217 218 221 222 221 221 225 223 222 221 224 236 233
182 253 277 271 263 207 215 263 193 249 254 289 193 193 182 197 201 198 198 202 205 209 211 208 206 205 205 202 206 207 211 213 218 219 218 224 224 227 228 229 230 231 227 228 227 230 232 245 240
163 285 294 226 228 238 182 172 218 224 220 244 256 223 213 206 197 211 206 210 209 215 211 212 210 210 211 209 210 212 214 215 221 223 225 228 231 234 233 233 232 233 233 240 242 241 239 240 241
239 204 257 188 195 67 224 239 238 231 224 235 233 227 225 216 220 222 216 216 217 216 218 217 213 216 216 213 211 210 215 219 223 224 226 231 234 236 235 236 238 238 243 250 245 245 235 238 237
39 242 208 292 38 107 224 237 241 295 277 257 238 245 243 246 237 233 227 228 224 226 219 217 218 216 215 217 217 217 220 222 225 228 229 234 236 235 235 235 237 237 246 246 240 246 228 234 237
127 147 219 267 156 306 211 258 312 357 1 333 6 332 331 321 330 324 303 283 269 247 234 225 224 223 220 217 218 219 223 229 229 231 233 237 234 234 235 231 229 227 232 245 237 228 231 228 230
222 225 257 265 231 267 206 259 35 53 64 62 57 41 23 18 355 1 350 311 279 273 253 240 236 233 223 211 205 214 218 219 227 230 234 233 232 228 229 224 225 221 232 229 221 206 191 193 190
213 246 257 278 227 213 178 172 71 57 57 63 66 59 36 25 17 9 1 354 325 276 251 240 236 228 230 217 211 207 210 219 228 230 230 230 232 227 228 224 221 228 230 220 218 203 196 204 201
239 230 219 261 123 159 151 188 142 78 65 57 48 46 43 34 19 9 9 5 349 327 279 251 237 229 227 220 209 203 196 217 225 227 225 231 230 226 228 229 226 231 225 223 219 215 217 198 190
253 211 212 188 188 205 231 201 133 118 83 59 44 35 25 20 17 13 9 9 1 342 316 273 248 234 228 219 215 204 202 209 220 219 215 221 225 226 230 230 229 224 207 218 212 211 206 186 180
251 176 210 200 206 195 182 227 144 206 86 58 46 41 34 26 18 12 8 3 4 0 347 314 267 237 225 217 212 213 212 216 217 211 207 212 222 227 227 222 219 206 210 209 204 201 192 191 188
114 140 90 102 180 227 205 225 177 180 133 90 70 41 24 15 16 15 11 9 10 9 5 359 305 248 232 225 219 215 217 211 210 209 204 206 215 222 224 216 211 210 209 207 204 197 197 195 192
185 198 222 223 217 250 179 208 34 131 104 81 43 28 23 21 17 11 11 10 8 7 3 2 354 285 248 236 226 224 230 228 222 215 207 203 209 216 219 210 206 205 207 205 201 202 201 200 193
201 218 234 251 246 252 164 208 157 119 98 68 50 28 27 27 19 16 10 4 4 3 4 5 0 349 272 238 231 229 231 233 231 232 217 208 211 217 218 213 209 207 204 203 205 205 203 202 200
156 213 352 173 63 246 182 103 127 134 102 70 42 33 20 13 13 14 11 7 2 1 5 8 11 8 356 280 229 228 231 233 238 231 231 224 218 219 220 218 212 210 207 207 207 205 206 205 203
59 86 195 196 234 242 204 200 185 180 146 99 45 22 11 5 7 7 7 7 2 3 6 10 12 17 11 4 331 251 241 246 248 243 237 232 230 227 227 222 218 213 211 208 207 207 206 204 203
6 152 65 327 305 264 253 214 127 149 138 123 57 24 8 2 2 2 1 3 4 6 9 9 13 13 8 6 4 357 318 261 247 248 246 240 242 239 238 235 226 221 214 211 210 210 207 207 204
296 264 207 237 246 108 310 248 143 131 143 179 3 4 358 352 350 355 4 3 2 3 5 7 6 6 10 6 5 10 11 349 277 279 260 247 240 240 238 242 242 241 221 215 215 210 208 207 202